Tracking 35237 objects as of 5-Sep-2026
HD Live streaming from Space Station
objects crossing your sky now

STARLINK-3942

Track STARLINK-3942 now!
10-day predictions
STARLINK-3942 is classified as:


NORAD ID: 52563
Int'l Code: 2022-051AG
Launch date: May 13, 2022
Source: United States (US)
Launch site: AIR FORCE WESTERN TEST RANGE (AFWTR)
Your satellite tracking list
Your tracking list is empty




NASA's NSSDC Master Catalog

Two Line Element Set (TLE):
1 52563U 22051AG  26247.71567569  .00001405  00000-0  51179-4 0  9995
2 52563  53.1614  39.7248 0000991  81.6312 278.4803 15.35402603238549
Source of the keplerian elements: AFSPC